User: anonymous   Login
Location: Montr�al
(45.5000°N, 73.5830°W)
Time: 01:09:00
(UTC-04:00)
Language:

Cosmos 1151 Rocket - Orbit

View from above orbital plane
View from above orbital plane
View from above satellite
View from above satellite

Ground track
Ground track

The orbit data is extracted from the following two-line orbital elements,

1 11672U 80005B   17235.43169809 +.00000100 +00000-0 +81830-5 0  9994
2 11672 082.5165 015.9015 0018340 093.8118 266.5197 14.87876743012287
Epoch (UTC): 23 August 2017 10:21:38
Eccentricity: 0.0018340
inclination: 82.5165°
perigee height: 592 km
apogee height: 617 km
right ascension of ascending node: 15.9015°
argument of perigee: 93.8118°
revolutions per day: 14.87876743
mean anomaly at epoch: 266.5197°
orbit number at epoch: 1228

The dashed part of the orbit path shows where the satellite is in the earth's shadow,  

DLR